Time_in_sec,gx,gy,gz
1323442000.51356697,0.09251466,0.02787850,-0.99532097
1323442000.56119084,0.09244795,0.02812899,-0.99532012
1323442000.61250019,0.09232932,0.02825640,-0.99532752
1323442000.66562080,0.09239869,0.02827863,-0.99532045
1323442000.71252942,0.09229005,0.02851150,-0.99532389
1323442000.76550817,0.09321345,0.02800243,-0.99525229
1323442000.81500220,0.09307489,0.02788953,-0.99526843
1323442000.86451626,0.09316204,0.02797504,-0.99525787
1323442000.91353559,0.09319802,0.02825836,-0.99524650
1323442000.96451998,0.09326807,0.02847254,-0.99523383
1323442001.01284790,0.09346556,0.02802172,-0.99522810
1323442001.06151986,0.09324625,0.02801970,-0.99524873
1323442001.11350250,0.09313521,0.02792013,-0.99526192
1323442001.16363740,0.09306220,0.02820158,-0.99526082
1323442001.21604753,0.09301568,0.02820127,-0.99526518
1323442001.26168513,0.09356937,0.02890644,-0.99519304
1323442001.31355190,0.09321212,0.02875075,-0.99523108
1323442001.36458802,0.09297786,0.02890241,-0.99524860
1323442001.41352034,0.09280616,0.02898027,-0.99526236
1323442001.46148896,0.09273103,0.02917555,-0.99526366
1323442001.51252389,0.09290714,0.02838142,-0.99527019
1323442001.56554055,0.09290460,0.02846761,-0.99526797
1323442001.61350083,0.09288003,0.02856386,-0.99526750
1323442001.66525817,0.09277137,0.02876225,-0.99527193
1323442001.71351290,0.09295204,0.02883536,-0.99525295
1323442001.76183581,0.09338483,0.02880614,-0.99521328
1323442001.81265140,0.09349720,0.02855890,-0.99520986
1323442001.86150384,0.09340872,0.02837310,-0.99522348
1323442001.91314673,0.09332408,0.02839805,-0.99523071
1323442001.96565485,0.09321187,0.02850836,-0.99523807
1323442002.01384974,0.09317860,0.02844405,-0.99524303
1323442002.06121111,0.09322062,0.02840505,-0.99524021
1323442002.11352110,0.09326486,0.02862938,-0.99522963
1323442002.16108131,0.09326212,0.02850193,-0.99523355
1323442002.21264029,0.09319685,0.02851279,-0.99523935
1323442002.26151562,0.09361374,0.02827261,-0.99520708
1323442002.31367207,0.09356959,0.02805974,-0.99521725
1323442002.36127067,0.09384211,0.02815830,-0.99518881
1323442002.41359019,0.09407355,0.02812063,-0.99516802
1323442002.46570468,0.09405530,0.02806473,-0.99517133
1323442002.51254392,0.09425097,0.02825142,-0.99514753
1323442002.56497836,0.09411182,0.02830741,-0.99515911
1323442002.61264110,0.09403608,0.02853628,-0.99515973
1323442002.66148663,0.09381283,0.02857569,-0.99517967
1323442002.70090270,0.09366295,0.02834484,-0.99520039
1323442002.76168847,0.09303623,0.02829452,-0.99526061
1323442002.81361198,0.09318697,0.02830458,-0.99524622
1323442002.86455655,0.09316875,0.02843335,-0.99524426
1323442002.91254997,0.09314022,0.02819023,-0.99525384
1323442002.96102071,0.09324725,0.02830092,-0.99524068
1323442003.01386285,0.09355630,0.02901154,-0.99519121
1323442003.06150484,0.09348220,0.02904748,-0.99519713
1323442003.11261296,0.09348305,0.02935623,-0.99518799
1323442003.16077280,0.09329463,0.02941788,-0.99520385
1323442003.21352005,0.09310955,0.02955905,-0.99521700
1323442003.26566267,0.09362215,0.03027505,-0.99514738
1323442003.31354642,0.09367206,0.03058879,-0.99513309
1323442003.36122704,0.09378089,0.03051250,-0.99512518
1323442003.41366696,0.09377689,0.03077852,-0.99511737
1323442003.46172762,0.09379275,0.03099129,-0.99510927
1323442003.51355076,0.09382175,0.03081372,-0.99511205
1323442003.56157303,0.09356999,0.03060891,-0.99514208
1323442003.61412144,0.09361637,0.03046453,-0.99514214
1323442003.66154289,0.09368818,0.03046394,-0.99513540
1323442003.71354795,0.09374745,0.03050284,-0.99512863
1323442003.76155305,0.09454904,0.02966137,-0.99507823
1323442003.81279445,0.09449121,0.02973651,-0.99508148
1323442003.86151004,0.09460661,0.02992685,-0.99506481
1323442003.91257596,0.09438101,0.02992640,-0.99508625
1323442003.96168637,0.09413339,0.03003365,-0.99510647
1323442004.01358008,0.09532264,0.02883768,-0.99502863
1323442004.06165671,0.09516192,0.02865303,-0.99504935
1323442004.11540270,0.09502051,0.02860029,-0.99506438
1323442004.16152096,0.09507630,0.02883093,-0.99505240
1323442004.21354365,0.09503809,0.02900709,-0.99505093
1323442004.26150584,0.09619589,0.02826830,-0.99496093
1323442004.31354380,0.09626926,0.02849987,-0.99494723
1323442004.36557508,0.09615012,0.02859104,-0.99495613
1323442004.41357613,0.09619862,0.02869222,-0.99494853
1323442004.46457195,0.09626845,0.02869695,-0.99494164
1323442004.51357913,0.09717622,0.02816842,-0.99486850
1323442004.56126595,0.09715632,0.02825292,-0.99486804
1323442004.61376166,0.09729235,0.02805596,-0.99486032
1323442004.66151690,0.09716770,0.02824197,-0.99486724
1323442004.71354318,0.09718325,0.02804250,-0.99487137
1323442004.76463151,0.09779726,0.02718889,-0.99483489
1323442004.81361985,0.09780590,0.02720879,-0.99483350
1323442004.86169171,0.09779797,0.02725737,-0.99483295
1323442004.91413784,0.09770811,0.02740866,-0.99483762
1323442004.95314312,0.09776882,0.02744292,-0.99483071
1323442005.01324773,0.09813979,0.02774529,-0.99478580
1323442005.06148958,0.09812139,0.02780373,-0.99478598
1323442005.11311078,0.09823175,0.02789007,-0.99477267
1323442005.16152191,0.09830164,0.02832558,-0.99475346
1323442005.21352363,0.09848665,0.02849759,-0.99473025
1323442005.25264764,0.09872835,0.02972702,-0.99467031
1323442005.30102730,0.09871088,0.02965298,-0.99467425
1323442005.35299993,0.09869305,0.02971023,-0.99467431
1323442005.40155673,0.09865532,0.02990950,-0.99467208
1323442005.46161175,0.09847083,0.02997784,-0.99468831
1323442005.50503850,0.09878423,0.03116030,-0.99462089
1323442005.55301952,0.09883965,0.03127074,-0.99461192
1323442005.60150576,0.09861600,0.03130742,-0.99463296
1323442005.65367365,0.09831705,0.03135659,-0.99466101
1323442005.71356750,0.09825105,0.03147685,-0.99466373
1323442005.76154470,0.09886881,0.03258593,-0.99456680
1323442005.80160332,0.09880082,0.03258102,-0.99457372
1323442005.85351396,0.09887969,0.03244470,-0.99457033
1323442005.90102959,0.09896636,0.03250516,-0.99455974
1323442005.96153307,0.09889173,0.03241633,-0.99457006
1323442006.00099277,0.09951063,0.03260516,-0.99450216
1323442006.05396008,0.09959989,0.03268523,-0.99449059
1323442006.10075140,0.09942600,0.03286795,-0.99450197
1323442006.15351677,0.09941409,0.03302210,-0.99449805
1323442006.21284008,0.09941722,0.03283049,-0.99450409
1323442006.25355101,0.09974623,0.03211580,-0.99449448
1323442006.30082536,0.09975593,0.03205504,-0.99449546
1323442006.35367274,0.09981805,0.03222687,-0.99448368
1323442006.40059114,0.09969037,0.03242053,-0.99449019
1323442006.45254016,0.09957539,0.03243656,-0.99450119
1323442006.50063109,0.09929185,0.03190139,-0.99454685
1323442006.55351496,0.09908023,0.03172758,-0.99457351
1323442006.60466218,0.09912443,0.03187857,-0.99456428
1323442006.65352345,0.09910487,0.03168758,-0.99457233
1323442006.70551753,0.09886772,0.03171501,-0.99459506
1323442006.75263906,0.09868843,0.03156430,-0.99461766
1323442006.80255437,0.09872167,0.03127326,-0.99462355
1323442006.85256577,0.09846017,0.03162344,-0.99463840
1323442006.90455651,0.09840334,0.03155458,-0.99464621
1323442006.95252585,0.09840461,0.03137508,-0.99465177
1323442007.00453377,0.09798544,0.03161114,-0.99468567
1323442007.05351281,0.09791864,0.03166955,-0.99469039
1323442007.11343169,0.09762488,0.03162365,-0.99472073
1323442007.15249562,0.09759865,0.03176780,-0.99471871
1323442007.20210814,0.09759368,0.03185134,-0.99471653
1323442007.25250769,0.09686652,0.03212855,-0.99477869
1323442007.30450416,0.09672375,0.03224405,-0.99478884
1323442007.35350990,0.09671936,0.03234438,-0.99478601
1323442007.40451169,0.09669758,0.03259697,-0.99477988
1323442007.45351291,0.09652224,0.03295112,-0.99478524
1323442007.50128531,0.09656182,0.03247016,-0.99479722
1323442007.55249643,0.09664399,0.03252699,-0.99478738
1323442007.60151386,0.09668640,0.03262073,-0.99478019
1323442007.65327668,0.09657278,0.03244606,-0.99479694
1323442007.70692682,0.09633195,0.03252357,-0.99481776
1323442007.76149893,0.09698091,0.03056701,-0.99481675
1323442007.80155587,0.09711314,0.03068717,-0.99480015
1323442007.85315323,0.09702971,0.03081377,-0.99480438
1323442007.90150285,0.09685423,0.03083930,-0.99482069
1323442007.95377493,0.09682792,0.03075554,-0.99482584
1323442008.00153208,0.09710976,0.02952696,-0.99483559
1323442008.05263567,0.09706526,0.02965953,-0.99483599
1323442008.10564828,0.09695874,0.02960972,-0.99484786
1323442008.15369606,0.09691377,0.02965311,-0.99485095
1323442008.20565033,0.09687874,0.02980105,-0.99484994
1323442008.25351238,0.09647260,0.02902266,-0.99491242
1323442008.31305099,0.09643761,0.02888842,-0.99491972
1323442008.35264707,0.09623909,0.02868405,-0.99494485
1323442008.40551043,0.09617974,0.02864223,-0.99495180
1323442008.45267081,0.09628569,0.02895949,-0.99493237
1323442008.50566077,0.09592020,0.02693547,-0.99502452
1323442008.55250478,0.09597587,0.02714186,-0.99501354
1323442008.60160065,0.09594771,0.02709029,-0.99501766
1323442008.65350938,0.09567874,0.02717086,-0.99504137
1323442008.70088577,0.09560362,0.02729135,-0.99504529
1323442008.75288844,0.09501253,0.02658689,-0.99512098
1323442008.80150390,0.09502671,0.02683248,-0.99511303
1323442008.85287261,0.09522204,0.02680317,-0.99509515
1323442008.90166283,0.09511605,0.02694806,-0.99510137
1323442008.96157026,0.09520936,0.02697499,-0.99509172
1323442009.00466394,0.09422645,0.02619858,-0.99520601
1323442009.05351424,0.09425296,0.02623579,-0.99520252
1323442009.10078144,0.09426871,0.02644554,-0.99519548
1323442009.15366483,0.09418623,0.02674270,-0.99519535
1323442009.20149422,0.09415812,0.02660625,-0.99520167
1323442009.25366807,0.09296895,0.02688971,-0.99530584
1323442009.30158734,0.09291592,0.02694742,-0.99530923
1323442009.35360837,0.09278886,0.02687221,-0.99532312
1323442009.40160275,0.09292518,0.02708607,-0.99530460
1323442009.45357013,0.09289952,0.02698495,-0.99530975
1323442009.50554466,0.09276028,0.02853242,-0.99527957
1323442009.55262780,0.09271054,0.02839286,-0.99528820
1323442009.60553837,0.09290535,0.02840014,-0.99526983
1323442009.65659618,0.09287988,0.02835732,-0.99527342
1323442009.70166397,0.09281224,0.02830338,-0.99528127
1323442009.75256753,0.09357507,0.02907911,-0.99518748
1323442009.81255436,0.09375634,0.02924907,-0.99516543
1323442009.85351801,0.09379484,0.02925887,-0.99516152
1323442009.90414023,0.09379981,0.02922406,-0.99516207
1323442009.95254731,0.09390357,0.02924629,-0.99515163
1323442010.00552201,0.09419432,0.02960253,-0.99511362
1323442010.05656314,0.09415339,0.02983653,-0.99511051
1323442010.10457540,0.09392822,0.02994584,-0.99512850
1323442010.15137315,0.09391274,0.02995560,-0.99512967
1323442010.20457983,0.09419887,0.03008944,-0.99509859
1323442010.25337529,0.09388845,0.03081590,-0.99510569
1323442010.30136514,0.09365748,0.03064650,-0.99513269
1323442010.35265779,0.09374085,0.03066486,-0.99512427
1323442010.41348124,0.09356558,0.03065959,-0.99514093
1323442010.45665836,0.09362501,0.03076424,-0.99513211
1323442010.50458288,0.09384038,0.03117447,-0.99509906
1323442010.56489420,0.09388126,0.03110599,-0.99509735
1323442010.60556197,0.09404636,0.03116298,-0.99507997
1323442010.65351057,0.09396276,0.03110559,-0.99508967
1323442010.70517540,0.09418970,0.03117597,-0.99506601
1323442010.75324225,0.09535727,0.03157353,-0.99494226
1323442010.80150652,0.09534380,0.03132539,-0.99495140
1323442010.85366631,0.09516367,0.03129912,-0.99496947
1323442010.90125489,0.09521873,0.03142651,-0.99496018
1323442010.95363498,0.09538778,0.03161128,-0.99493814
1323442011.00120878,0.09674615,0.03057771,-0.99483928
1323442011.05351067,0.09679472,0.03078558,-0.99482814
1323442011.10554862,0.09683834,0.03089714,-0.99482044
1323442011.15281844,0.09680238,0.03100315,-0.99482064
1323442011.20152068,0.09679310,0.03109955,-0.99481853
1323442011.25254083,0.09734665,0.03026871,-0.99479015
1323442011.30119467,0.09732199,0.03038636,-0.99478897
1323442011.35328412,0.09713266,0.03042304,-0.99480636
1323442011.40474367,0.09722653,0.03042266,-0.99479720
1323442011.45351934,0.09701591,0.03056913,-0.99481327
1323442011.50453544,0.09601274,0.03083792,-0.99490229
1323442011.55265403,0.09603414,0.03074373,-0.99490314
1323442011.60149312,0.09591284,0.03091410,-0.99490957
1323442011.65262628,0.09598322,0.03084754,-0.99490484
1323442011.70151711,0.09580258,0.03074455,-0.99492544
1323442011.75252485,0.09522481,0.03216258,-0.99493608
1323442011.80565119,0.09502510,0.03229775,-0.99495080
1323442011.85370374,0.09507002,0.03250434,-0.99493978
1323442011.90567994,0.09502272,0.03245764,-0.99494582
1323442011.95265412,0.09497502,0.03260551,-0.99494554
1323442012.00289130,0.09527623,0.03371654,-0.99487971
1323442012.05378652,0.09511040,0.03401560,-0.99488540
1323442012.10556078,0.09484375,0.03418635,-0.99490500
1323442012.16152191,0.09470205,0.03411275,-0.99492102
1323442012.20189643,0.09466207,0.03406502,-0.99492646
1323442012.25379705,0.09489862,0.03435747,-0.99489387
1323442012.30555272,0.09499800,0.03462277,-0.99487519
1323442012.35253620,0.09491241,0.03481125,-0.99487678
1323442012.40152454,0.09504228,0.03485029,-0.99486302
1323442012.45251441,0.09482156,0.03471295,-0.99488888
1323442012.50562930,0.09445677,0.03499307,-0.99491377
1323442012.56549978,0.09443740,0.03497050,-0.99491640
1323442012.60852718,0.09452996,0.03500866,-0.99490627
1323442012.65354156,0.09474892,0.03487619,-0.99489009
1323442012.70547771,0.09467930,0.03484151,-0.99489793
1323442012.75334120,0.09468707,0.03474383,-0.99490061
1323442012.80149460,0.09479413,0.03467142,-0.99489294
1323442012.85350871,0.09476572,0.03480925,-0.99489084
1323442012.90855980,0.09458948,0.03475900,-0.99490936
1323442012.95181155,0.09422963,0.03484689,-0.99494044
1323442013.01395154,0.09393963,0.03490638,-0.99496577
1323442013.05354595,0.09399631,0.03492335,-0.99495982
1323442013.10684347,0.09391029,0.03476645,-0.99497344
1323442013.15333629,0.09364146,0.03478450,-0.99499815
1323442013.20551467,0.09362531,0.03456474,-0.99500733
1323442013.25251126,0.09319118,0.03500031,-0.99503286
1323442013.30790019,0.09315529,0.03499638,-0.99503635
1323442013.35333943,0.09306815,0.03492893,-0.99504688
1323442013.40809822,0.09313712,0.03489925,-0.99504147
1323442013.45353651,0.09291491,0.03492578,-0.99506131
1323442013.50553203,0.09121446,0.03551601,-0.99519774
1323442013.55337977,0.09113434,0.03570042,-0.99519848
1323442013.60150838,0.09119317,0.03563074,-0.99519559
1323442013.65322065,0.09101719,0.03578579,-0.99520613
1323442013.70234299,0.09131454,0.03584450,-0.99517678
1323442013.76155448,0.08946103,0.03604977,-0.99533770
1323442013.80159235,0.08924875,0.03618742,-0.99535176
1323442013.85365796,0.08933462,0.03612433,-0.99534635
1323442013.90567708,0.08943580,0.03653712,-0.99532220
1323442013.95430136,0.08923202,0.03663680,-0.99533682
1323442014.00316501,0.08834965,0.03615568,-0.99543312
1323442014.05315590,0.08841232,0.03615306,-0.99542766
1323442014.10565996,0.08839447,0.03615154,-0.99542930
1323442014.15314221,0.08839966,0.03614572,-0.99542905
1323442014.20111847,0.08808498,0.03627508,-0.99545224
1323442014.25351262,0.08684335,0.03626627,-0.99556165
1323442014.31264710,0.08681498,0.03657034,-0.99555300
1323442014.35320568,0.08673806,0.03640116,-0.99556590
1323442014.40151000,0.08664337,0.03644458,-0.99557256
1323442014.45495725,0.08636139,0.03655125,-0.99559315
1323442014.50398064,0.08597986,0.03684148,-0.99561547
1323442014.55253482,0.08605825,0.03656717,-0.99561881
1323442014.60153008,0.08597922,0.03655159,-0.99562621
1323442014.65351915,0.08576118,0.03665601,-0.99564118
1323442014.71281552,0.08560016,0.03650117,-0.99566072
1323442014.75281072,0.08599569,0.03626733,-0.99563518
1323442014.80551958,0.08630164,0.03619184,-0.99561146
1323442014.85536623,0.08621060,0.03637194,-0.99561278
1323442014.90077853,0.08631387,0.03649790,-0.99559923
1323442014.95279193,0.08632949,0.03629872,-0.99560515
1323442015.00491881,0.08577168,0.03752956,-0.99560773
1323442015.05356669,0.08583008,0.03760387,-0.99559989
1323442015.10097361,0.08575218,0.03766068,-0.99560446
1323442015.15258050,0.08552337,0.03770470,-0.99562247
1323442015.20149279,0.08550123,0.03772202,-0.99562372
1323442015.25274992,0.08590768,0.03910236,-0.99553547
1323442015.30559587,0.08590857,0.03925405,-0.99552943
1323442015.36065340,0.08582766,0.03920379,-0.99553838
1323442015.40459204,0.08569185,0.03929834,-0.99554636
1323442015.45352435,0.08579498,0.03943163,-0.99553220
1323442015.50451064,0.08668932,0.04027754,-0.99542086
1323442015.55251670,0.08659337,0.04021568,-0.99543171
1323442015.60558462,0.08663661,0.04021903,-0.99542781
1323442015.65254474,0.08632747,0.04027668,-0.99545234
1323442015.70554376,0.08647880,0.04014279,-0.99544461
1323442015.75354457,0.08842381,0.04099595,-0.99523895
1323442015.80463529,0.08849666,0.04082018,-0.99523970
1323442015.85351729,0.08853040,0.04072322,-0.99524067
1323442015.90451431,0.08814685,0.04074718,-0.99527373
1323442015.95289278,0.08806085,0.04065677,-0.99528504
1323442016.00456548,0.08909467,0.04056806,-0.99519665
1323442016.05252814,0.08917307,0.04073560,-0.99518278
1323442016.10450840,0.08895700,0.04099604,-0.99519143
1323442016.15351272,0.08880933,0.04097084,-0.99520565
1323442016.20557952,0.08854484,0.04097856,-0.99522890
1323442016.25355935,0.08910323,0.04115546,-0.99517177
1323442016.30553579,0.08875910,0.04108889,-0.99520527
1323442016.35357928,0.08872349,0.04113311,-0.99520662
1323442016.40151429,0.08868434,0.04111916,-0.99521068
1323442016.45280099,0.08871797,0.04122641,-0.99520325
1323442016.50567794,0.08847523,0.04198777,-0.99519303
1323442016.55264211,0.08830619,0.04209026,-0.99520371
1323442016.60463381,0.08840022,0.04211040,-0.99519451
1323442016.65366745,0.08831772,0.04215359,-0.99520001
1323442016.70556188,0.08836927,0.04241304,-0.99518441
1323442016.75263858,0.08798513,0.04232466,-0.99522221
1323442016.80308938,0.08783191,0.04226625,-0.99523822
1323442016.85257530,0.08767972,0.04222190,-0.99525352
1323442016.90452242,0.08751299,0.04211984,-0.99527252
1323442016.95352602,0.08741827,0.04207335,-0.99528281
1323442017.00556064,0.08732869,0.04165256,-0.99530838
1323442017.05358243,0.08731103,0.04173320,-0.99530655
1323442017.10097361,0.08728533,0.04182971,-0.99530475
1323442017.15260386,0.08731039,0.04181587,-0.99530313
1323442017.20151639,0.08722761,0.04204292,-0.99530083
1323442017.25262523,0.08756913,0.04121810,-0.99530534
1323442017.30194688,0.08726008,0.04124118,-0.99533152
1323442017.35252929,0.08717765,0.04124681,-0.99533851
1323442017.40094972,0.08698776,0.04116305,-0.99535860
1323442017.45387554,0.08684315,0.04100533,-0.99537773
1323442017.51296902,0.08701903,0.04059567,-0.99537916
1323442017.55260515,0.08686485,0.04069331,-0.99538864
1323442017.60205793,0.08683606,0.04082544,-0.99538575
1323442017.65255857,0.08676298,0.04071481,-0.99539665
1323442017.70551515,0.08661567,0.04089593,-0.99540205
1323442017.75354338,0.08654852,0.03987795,-0.99544920
1323442017.80200005,0.08653050,0.04018054,-0.99543859
1323442017.85350204,0.08656386,0.04023708,-0.99543341
1323442017.90553737,0.08649706,0.04025574,-0.99543846
1323442017.95253754,0.08633292,0.04028884,-0.99545137
1323442018.00409508,0.08429988,0.04088259,-0.99560140
1323442018.05252552,0.08424702,0.04113295,-0.99559556
1323442018.10468435,0.08439364,0.04112522,-0.99558346
1323442018.15350628,0.08455530,0.04103005,-0.99557367
1323442018.20153689,0.08456559,0.04099254,-0.99557434
1323442018.25361300,0.08339532,0.04128038,-0.99566116
1323442018.30456138,0.08320348,0.04156323,-0.99566545
1323442018.35268855,0.08317350,0.04150050,-0.99567057
1323442018.40153384,0.08316113,0.04180054,-0.99565905
